Time,TemperatureF,DewpointF,PressureIn,WindDirection,WindDirectionDegrees,WindSpeedMPH,WindSpeedGustMPH,Humidity,HourlyPrecipIn,Conditions,Clouds,dailyrainin,SoftwareType,DateUTC
2013-01-19 00:00:00,20.6,7.0,30.40,SSW,200,2.0,2.0,55,0.00,,---,0.00,VWS V14.01,2013-01-19 05:00:00,
2013-01-19 00:04:00,20.7,7.1,30.40,South,171,2.0,3.0,55,0.00,,---,0.00,VWS V14.01,2013-01-19 05:04:00,
2013-01-19 00:05:00,20.7,7.1,30.40,South,171,2.0,3.0,55,0.00,,---,0.00,VWS V14.01,2013-01-19 05:05:00,
2013-01-19 00:10:00,20.8,6.8,30.39,South,173,2.0,3.0,54,0.00,,---,0.00,VWS V14.01,2013-01-19 05:10:00,
2013-01-19 00:15:00,20.9,7.3,30.39,South,188,0.0,2.0,55,0.00,,---,0.00,VWS V14.01,2013-01-19 05:15:00,
2013-01-19 00:19:00,20.9,6.9,30.39,WSW,238,0.0,2.0,54,0.00,,---,0.00,VWS V14.01,2013-01-19 05:19:00,
2013-01-19 00:20:00,20.9,6.9,30.39,WSW,238,0.0,2.0,54,0.00,,---,0.00,VWS V14.01,2013-01-19 05:20:00,
2013-01-19 00:25:00,21.0,7.0,30.39,East,83,1.0,3.0,54,0.00,,---,0.00,VWS V14.01,2013-01-19 05:25:00,
2013-01-19 00:30:00,21.1,7.1,30.38,West,273,0.0,3.0,54,0.00,,---,0.00,VWS V14.01,2013-01-19 05:30:00,
2013-01-19 00:34:00,21.2,7.2,30.38,SSW,194,0.0,4.0,54,0.00,,---,0.00,VWS V14.01,2013-01-19 05:34:00,
2013-01-19 00:35:00,21.2,7.2,30.38,SSW,194,0.0,4.0,54,0.00,,---,0.00,VWS V14.01,2013-01-19 05:35:00,
2013-01-19 00:40:00,21.2,8.0,30.38,West,261,1.0,3.0,56,0.00,,---,0.00,VWS V14.01,2013-01-19 05:40:00,
2013-01-19 00:45:00,21.3,7.3,30.38,South,183,1.0,3.0,54,0.00,,---,0.00,VWS V14.01,2013-01-19 05:45:00,
2013-01-19 00:50:00,21.5,7.8,30.38,East,94,1.0,2.0,55,0.00,,---,0.00,VWS V14.01,2013-01-19 05:50:00,
2013-01-19 00:55:00,21.6,7.5,30.38,South,171,0.0,3.0,54,0.00,,---,0.00,VWS V14.01,2013-01-19 05:55:00,
2013-01-19 01:00:00,21.8,8.1,30.38,South,174,0.0,4.0,55,0.00,,---,0.00,VWS V14.01,2013-01-19 06:00:00,
2013-01-19 01:05:00,21.9,8.2,30.37,SSW,212,0.0,2.0,55,0.00,,---,0.00,VWS V14.01,2013-01-19 06:05:00,
2013-01-19 01:10:00,22.0,7.9,30.37,West,276,2.0,4.0,54,0.00,,---,0.00,VWS V14.01,2013-01-19 06:10:00,
2013-01-19 01:15:00,22.1,8.0,30.36,SE,131,2.0,3.0,54,0.00,,---,0.00,VWS V14.01,2013-01-19 06:15:00,
2013-01-19 01:20:00,22.1,8.8,30.35,SE,138,1.0,3.0,56,0.00,,---,0.00,VWS V14.01,2013-01-19 06:20:00,
2013-01-19 01:24:00,22.2,8.5,30.35,SSE,157,0.0,3.0,55,0.00,,---,0.00,VWS V14.01,2013-01-19 06:24:00,
2013-01-19 01:25:00,22.2,8.5,30.35,SSE,157,0.0,3.0,55,0.00,,---,0.00,VWS V14.01,2013-01-19 06:25:00,
2013-01-19 01:30:00,22.2,8.5,30.37,SSW,203,1.0,4.0,55,0.00,,---,0.00,VWS V14.01,2013-01-19 06:30:00,
2013-01-19 01:35:00,22.3,8.6,30.36,SSE,158,1.0,4.0,55,0.00,,---,0.00,VWS V14.01,2013-01-19 06:35:00,
2013-01-19 01:40:00,22.4,8.7,30.36,SSE,165,0.0,3.0,55,0.00,,---,0.00,VWS V14.01,2013-01-19 06:40:00,
2013-01-19 01:44:00,22.5,9.2,30.35,South,183,0.0,2.0,56,0.00,,---,0.00,VWS V14.01,2013-01-19 06:44:00,
2013-01-19 01:45:00,22.5,9.2,30.35,South,183,0.0,2.0,56,0.00,,---,0.00,VWS V14.01,2013-01-19 06:45:00,
2013-01-19 01:50:00,22.6,8.9,30.35,SW,225,1.0,5.0,55,0.00,,---,0.00,VWS V14.01,2013-01-19 06:50:00,
2013-01-19 01:55:00,22.7,9.4,30.35,SSE,160,1.0,5.0,56,0.00,,---,0.00,VWS V14.01,2013-01-19 06:55:00,
2013-01-19 02:00:00,22.9,9.2,30.36,West,277,4.0,9.0,55,0.00,,---,0.00,VWS V14.01,2013-01-19 07:00:00,
2013-01-19 02:05:00,23.1,9.8,30.35,South,183,1.0,5.0,56,0.00,,---,0.00,VWS V14.01,2013-01-19 07:05:00,
2013-01-19 02:10:00,23.3,9.9,30.34,ENE,65,1.0,4.0,56,0.00,,---,0.00,VWS V14.01,2013-01-19 07:10:00,
2013-01-19 02:15:00,23.5,10.1,30.34,SW,231,0.0,9.0,56,0.00,,---,0.00,VWS V14.01,2013-01-19 07:15:00,
2013-01-19 02:19:00,23.7,10.3,30.33,SSE,154,2.0,7.0,56,0.00,,---,0.00,VWS V14.01,2013-01-19 07:19:00,
2013-01-19 02:20:00,23.7,10.3,30.33,SSE,154,2.0,7.0,56,0.00,,---,0.00,VWS V14.01,2013-01-19 07:20:00,
2013-01-19 02:25:00,23.9,10.9,30.33,SSW,193,3.0,4.0,57,0.00,,---,0.00,VWS V14.01,2013-01-19 07:25:00,
2013-01-19 02:30:00,24.1,11.1,30.33,West,273,3.0,5.0,57,0.00,,---,0.00,VWS V14.01,2013-01-19 07:30:00,
2013-01-19 02:35:00,24.3,11.3,30.32,SSE,154,2.0,4.0,57,0.00,,---,0.00,VWS V14.01,2013-01-19 07:35:00,
2013-01-19 02:40:00,24.4,11.4,30.32,East,94,2.0,5.0,57,0.00,,---,0.00,VWS V14.01,2013-01-19 07:40:00,
2013-01-19 02:45:00,24.5,11.5,30.32,SSE,166,1.0,4.0,57,0.00,,---,0.00,VWS V14.01,2013-01-19 07:45:00,
2013-01-19 02:50:00,24.7,11.6,30.32,SSE,150,5.0,6.0,57,0.00,,---,0.00,VWS V14.01,2013-01-19 07:50:00,
2013-01-19 02:55:00,24.7,11.6,30.31,SSE,151,0.0,5.0,57,0.00,,---,0.00,VWS V14.01,2013-01-19 07:55:00,
2013-01-19 03:00:00,24.8,11.7,30.30,SSW,194,1.0,9.0,57,0.00,,---,0.00,VWS V14.01,2013-01-19 08:00:00,
2013-01-19 03:05:00,24.8,12.1,30.30,East,92,0.0,6.0,58,0.00,,---,0.00,VWS V14.01,2013-01-19 08:05:00,
2013-01-19 03:09:00,24.8,12.1,30.30,SSE,166,1.0,6.0,58,0.00,,---,0.00,VWS V14.01,2013-01-19 08:09:00,
2013-01-19 03:10:00,24.8,12.1,30.30,SSE,166,1.0,6.0,58,0.00,,---,0.00,VWS V14.01,2013-01-19 08:10:00,
2013-01-19 03:15:00,24.9,12.6,30.31,NE,40,0.0,2.0,59,0.00,,---,0.00,VWS V14.01,2013-01-19 08:15:00,
2013-01-19 03:20:00,25.0,12.7,30.30,South,172,0.0,6.0,59,0.00,,---,0.00,VWS V14.01,2013-01-19 08:20:00,
2013-01-19 03:25:00,25.1,13.2,30.30,SSE,165,1.0,5.0,60,0.00,,---,0.00,VWS V14.01,2013-01-19 08:25:00,
2013-01-19 03:30:00,25.2,13.3,30.30,SSW,206,0.0,5.0,60,0.00,,---,0.00,VWS V14.01,2013-01-19 08:30:00,
2013-01-19 03:35:00,25.3,13.4,30.30,SSE,153,0.0,5.0,60,0.00,,---,0.00,VWS V14.01,2013-01-19 08:35:00,
2013-01-19 03:40:00,25.5,13.9,30.30,South,182,0.0,5.0,61,0.00,,---,0.00,VWS V14.01,2013-01-19 08:40:00,
2013-01-19 03:44:00,25.7,14.5,30.29,SSW,195,1.0,6.0,62,0.00,,---,0.00,VWS V14.01,2013-01-19 08:44:00,
2013-01-19 03:45:00,25.7,14.5,30.29,SSW,195,1.0,6.0,62,0.00,,---,0.00,VWS V14.01,2013-01-19 08:45:00,
2013-01-19 03:50:00,25.8,14.6,30.29,SSE,151,0.0,7.0,62,0.00,,---,0.00,VWS V14.01,2013-01-19 08:50:00,
2013-01-19 03:55:00,26.0,14.8,30.29,NW,317,0.0,3.0,62,0.00,,---,0.00,VWS V14.01,2013-01-19 08:55:00,
2013-01-19 04:00:00,26.2,15.0,30.28,West,270,1.0,6.0,62,0.00,,---,0.00,VWS V14.01,2013-01-19 09:00:00,
2013-01-19 04:05:00,26.3,15.4,30.29,WSW,244,0.0,3.0,63,0.00,,---,0.00,VWS V14.01,2013-01-19 09:05:00,
2013-01-19 04:10:00,26.5,15.3,30.29,SSE,155,0.0,6.0,62,0.00,,---,0.00,VWS V14.01,2013-01-19 09:10:00,
2013-01-19 04:15:00,26.5,15.6,30.28,WNW,282,7.0,7.0,63,0.00,,---,0.00,VWS V14.01,2013-01-19 09:15:00,
2013-01-19 04:20:00,26.6,15.7,30.27,West,275,6.0,7.0,63,0.00,,---,0.00,VWS V14.01,2013-01-19 09:20:00,
2013-01-19 04:25:00,26.7,16.2,30.27,WSW,248,2.0,7.0,64,0.00,,---,0.00,VWS V14.01,2013-01-19 09:25:00,
2013-01-19 04:30:00,26.7,16.2,30.26,SW,217,0.0,14.0,64,0.00,,---,0.00,VWS V14.01,2013-01-19 09:30:00,
2013-01-19 04:35:00,26.7,16.2,30.26,SSE,149,0.0,3.0,64,0.00,,---,0.00,VWS V14.01,2013-01-19 09:35:00,
2013-01-19 04:40:00,26.8,16.6,30.26,SSW,209,0.0,7.0,65,0.00,,---,0.00,VWS V14.01,2013-01-19 09:40:00,
2013-01-19 04:45:00,26.9,16.7,30.26,SW,227,1.0,4.0,65,0.00,,---,0.00,VWS V14.01,2013-01-19 09:45:00,
2013-01-19 04:50:00,27.1,17.3,30.26,SE,136,2.0,8.0,66,0.00,,---,0.00,VWS V14.01,2013-01-19 09:50:00,
2013-01-19 04:55:00,27.2,17.4,30.25,South,177,3.0,6.0,66,0.00,,---,0.00,VWS V14.01,2013-01-19 09:55:00,
2013-01-19 05:00:00,27.3,17.5,30.25,SSE,156,1.0,4.0,66,0.00,,---,0.00,VWS V14.01,2013-01-19 10:00:00,
2013-01-19 05:05:00,27.5,17.6,30.25,SW,226,1.0,8.0,66,0.00,,---,0.00,VWS V14.01,2013-01-19 10:05:00,
2013-01-19 05:10:00,27.7,17.8,30.25,North,355,0.0,4.0,66,0.00,,---,0.00,VWS V14.01,2013-01-19 10:10:00,
2013-01-19 05:15:00,27.8,18.3,30.25,West,264,3.0,9.0,67,0.00,,---,0.00,VWS V14.01,2013-01-19 10:15:00,
2013-01-19 05:20:00,27.8,18.3,30.24,SE,134,2.0,10.0,67,0.00,,---,0.00,VWS V14.01,2013-01-19 10:20:00,
2013-01-19 05:25:00,27.9,18.4,30.24,SW,221,1.0,7.0,67,0.00,,---,0.00,VWS V14.01,2013-01-19 10:25:00,
2013-01-19 05:30:00,28.0,18.8,30.24,SSE,152,1.0,5.0,68,0.00,,---,0.00,VWS V14.01,2013-01-19 10:30:00,
2013-01-19 05:35:00,28.1,18.9,30.24,East,97,1.0,3.0,68,0.00,,---,0.00,VWS V14.01,2013-01-19 10:35:00,
2013-01-19 05:40:00,28.2,19.0,30.23,South,170,2.0,6.0,68,0.00,,---,0.00,VWS V14.01,2013-01-19 10:40:00,
2013-01-19 05:45:00,28.3,18.8,30.23,South,186,0.0,6.0,67,0.00,,---,0.00,VWS V14.01,2013-01-19 10:45:00,
2013-01-19 05:50:00,28.5,19.3,30.23,SW,227,1.0,5.0,68,0.00,,---,0.00,VWS V14.01,2013-01-19 10:50:00,
2013-01-19 05:55:00,28.5,19.3,30.23,South,191,0.0,5.0,68,0.00,,---,0.00,VWS V14.01,2013-01-19 10:55:00,
2013-01-19 06:00:00,28.7,19.5,30.23,WSW,254,2.0,4.0,68,0.00,,---,0.00,VWS V14.01,2013-01-19 11:00:00,
2013-01-19 06:05:00,28.8,19.6,30.23,SE,144,2.0,5.0,68,0.00,,---,0.00,VWS V14.01,2013-01-19 11:05:00,
2013-01-19 06:10:00,28.9,19.7,30.22,SE,136,2.0,6.0,68,0.00,,---,0.00,VWS V14.01,2013-01-19 11:10:00,
2013-01-19 06:14:00,29.0,19.8,30.23,WNW,298,3.0,5.0,68,0.00,,---,0.00,VWS V14.01,2013-01-19 11:14:00,
2013-01-19 06:15:00,29.0,19.8,30.23,WNW,298,3.0,5.0,68,0.00,,---,0.00,VWS V14.01,2013-01-19 11:15:00,
2013-01-19 06:20:00,29.2,19.6,30.23,WSW,248,1.0,4.0,67,0.00,,---,0.00,VWS V14.01,2013-01-19 11:20:00,
2013-01-19 06:25:00,29.2,19.6,30.22,SSW,194,1.0,4.0,67,0.00,,---,0.00,VWS V14.01,2013-01-19 11:25:00,
2013-01-19 06:30:00,29.3,20.1,30.22,ESE,108,1.0,3.0,68,0.00,,---,0.00,VWS V14.01,2013-01-19 11:30:00,
2013-01-19 06:35:00,29.5,19.9,30.22,SSE,160,1.0,10.0,67,0.00,,---,0.00,VWS V14.01,2013-01-19 11:35:00,
2013-01-19 06:40:00,29.7,20.1,30.21,SE,144,0.0,5.0,67,0.00,,---,0.00,VWS V14.01,2013-01-19 11:40:00,
2013-01-19 06:45:00,29.8,20.2,30.21,NW,315,2.0,11.0,67,0.00,,---,0.00,VWS V14.01,2013-01-19 11:45:00,
2013-01-19 06:50:00,30.0,20.0,30.21,SSE,163,1.0,5.0,66,0.00,,---,0.00,VWS V14.01,2013-01-19 11:50:00,
2013-01-19 06:55:00,30.1,20.1,30.20,WNW,299,4.0,6.0,66,0.00,,---,0.00,VWS V14.01,2013-01-19 11:55:00,
2013-01-19 07:00:00,30.4,20.4,30.20,South,181,2.0,7.0,66,0.00,,---,0.00,VWS V14.01,2013-01-19 12:00:00,
2013-01-19 07:05:00,30.5,20.5,30.20,SE,124,0.0,6.0,66,0.00,,---,0.00,VWS V14.01,2013-01-19 12:05:00,
2013-01-19 07:10:00,30.7,20.7,30.20,South,188,3.0,6.0,66,0.00,,---,0.00,VWS V14.01,2013-01-19 12:10:00,
2013-01-19 07:15:00,30.9,20.9,30.20,South,184,0.0,9.0,66,0.00,,---,0.00,VWS V14.01,2013-01-19 12:15:00,
2013-01-19 07:20:00,30.9,20.9,30.20,SW,217,3.0,11.0,66,0.00,,---,0.00,VWS V14.01,2013-01-19 12:20:00,
2013-01-19 07:25:00,31.2,21.2,30.20,SSW,204,2.0,13.0,66,0.00,,---,0.00,VWS V14.01,2013-01-19 12:25:00,
2013-01-19 07:30:00,31.4,21.0,30.20,South,183,1.0,14.0,65,0.00,,---,0.00,VWS V14.01,2013-01-19 12:30:00,
2013-01-19 07:35:00,31.6,21.2,30.19,West,264,4.0,12.0,65,0.00,,---,0.00,VWS V14.01,2013-01-19 12:35:00,
2013-01-19 07:40:00,31.9,21.5,30.19,South,188,2.0,12.0,65,0.00,,---,0.00,VWS V14.01,2013-01-19 12:40:00,
2013-01-19 07:45:00,32.1,21.7,30.19,SW,231,6.0,12.0,65,0.00,,---,0.00,VWS V14.01,2013-01-19 12:45:00,
2013-01-19 07:50:00,32.4,22.0,30.19,South,172,5.0,10.0,65,0.00,,---,0.00,VWS V14.01,2013-01-19 12:50:00,
2013-01-19 07:55:00,32.6,22.1,30.19,SW,235,7.0,15.0,65,0.00,,---,0.00,VWS V14.01,2013-01-19 12:55:00,
2013-01-19 08:00:00,33.0,22.2,30.19,South,173,2.0,13.0,64,0.00,,---,0.00,VWS V14.01,2013-01-19 13:00:00,
2013-01-19 08:05:00,33.4,22.5,30.19,SSE,149,2.0,17.0,64,0.00,,---,0.00,VWS V14.01,2013-01-19 13:05:00,
2013-01-19 08:10:00,33.6,22.7,30.19,South,183,4.0,6.0,64,0.00,,---,0.00,VWS V14.01,2013-01-19 13:10:00,
2013-01-19 08:15:00,33.6,22.7,30.19,WNW,300,2.0,7.0,64,0.00,,---,0.00,VWS V14.01,2013-01-19 13:15:00,
2013-01-19 08:20:00,33.7,22.8,30.19,ESE,120,2.0,13.0,64,0.00,,---,0.00,VWS V14.01,2013-01-19 13:20:00,
2013-01-19 08:25:00,33.8,22.9,30.19,ENE,77,1.0,6.0,64,0.00,,---,0.00,VWS V14.01,2013-01-19 13:25:00,
2013-01-19 08:30:00,33.9,23.0,30.19,SE,137,5.0,14.0,64,0.00,,---,0.00,VWS V14.01,2013-01-19 13:30:00,
2013-01-19 08:35:00,34.1,23.2,30.18,South,183,1.0,15.0,64,0.00,,---,0.00,VWS V14.01,2013-01-19 13:35:00,
2013-01-19 08:40:00,34.3,23.8,30.19,NNE,16,1.0,7.0,65,0.00,,---,0.00,VWS V14.01,2013-01-19 13:40:00,
2013-01-19 08:45:00,34.5,24.0,30.18,North,356,1.0,14.0,65,0.00,,---,0.00,VWS V14.01,2013-01-19 13:45:00,
2013-01-19 08:50:00,34.8,24.2,30.18,SW,227,13.0,13.0,65,0.00,,---,0.00,VWS V14.01,2013-01-19 13:50:00,
2013-01-19 08:55:00,35.0,24.1,30.18,NW,322,11.0,13.0,64,0.00,,---,0.00,VWS V14.01,2013-01-19 13:55:00,
2013-01-19 09:00:00,35.5,24.5,30.19,NNW,344,4.0,14.0,64,0.00,,---,0.00,VWS V14.01,2013-01-19 14:00:00,
2013-01-19 09:05:00,35.9,24.9,30.18,East,86,2.0,15.0,64,0.00,,---,0.00,VWS V14.01,2013-01-19 14:05:00,
2013-01-19 09:10:00,36.3,25.3,30.18,West,273,5.0,11.0,64,0.00,,---,0.00,VWS V14.01,2013-01-19 14:10:00,
2013-01-19 09:15:00,36.8,25.4,30.18,West,281,2.0,7.0,63,0.00,,---,0.00,VWS V14.01,2013-01-19 14:15:00,
2013-01-19 09:20:00,37.1,25.3,30.18,WSW,252,3.0,12.0,62,0.00,,---,0.00,VWS V14.01,2013-01-19 14:20:00,
2013-01-19 09:25:00,37.3,25.5,30.17,SSW,196,7.0,13.0,62,0.00,,---,0.00,VWS V14.01,2013-01-19 14:25:00,
2013-01-19 09:30:00,37.6,25.8,30.17,SSE,161,9.0,10.0,62,0.00,,---,0.00,VWS V14.01,2013-01-19 14:30:00,
2013-01-19 09:35:00,37.8,26.0,30.17,West,274,1.0,11.0,62,0.00,,---,0.00,VWS V14.01,2013-01-19 14:35:00,
2013-01-19 09:40:00,37.9,26.1,30.17,NW,317,6.0,21.0,62,0.00,,---,0.00,VWS V14.01,2013-01-19 14:40:00,
2013-01-19 09:45:00,38.0,26.1,30.17,South,181,3.0,13.0,62,0.00,,---,0.00,VWS V14.01,2013-01-19 14:45:00,
2013-01-19 09:50:00,38.0,25.8,30.17,NW,310,3.0,15.0,61,0.00,,---,0.00,VWS V14.01,2013-01-19 14:50:00,
2013-01-19 09:55:00,38.2,26.3,30.16,SSW,213,6.0,12.0,62,0.00,,---,0.00,VWS V14.01,2013-01-19 14:55:00,
2013-01-19 10:00:00,38.3,26.0,30.16,East,93,1.0,9.0,61,0.00,,---,0.00,VWS V14.01,2013-01-19 15:00:00,
2013-01-19 10:05:00,38.6,26.3,30.16,NE,40,2.0,13.0,61,0.00,,---,0.00,VWS V14.01,2013-01-19 15:05:00,
2013-01-19 10:10:00,38.8,26.5,30.16,North,352,2.0,14.0,61,0.00,,---,0.00,VWS V14.01,2013-01-19 15:10:00,
2013-01-19 10:15:00,38.9,26.6,30.16,South,191,3.0,18.0,61,0.00,,---,0.00,VWS V14.01,2013-01-19 15:15:00,
2013-01-19 10:20:00,39.0,26.7,30.16,SSE,157,1.0,13.0,61,0.00,,---,0.00,VWS V14.01,2013-01-19 15:20:00,
2013-01-19 10:25:00,39.0,26.3,30.15,WSW,258,9.0,11.0,60,0.00,,---,0.00,VWS V14.01,2013-01-19 15:25:00,
2013-01-19 10:30:00,39.1,26.4,30.15,WSW,237,6.0,12.0,60,0.00,,---,0.00,VWS V14.01,2013-01-19 15:30:00,
2013-01-19 10:35:00,39.2,26.5,30.15,ENE,65,2.0,10.0,60,0.00,,---,0.00,VWS V14.01,2013-01-19 15:35:00,
2013-01-19 10:40:00,39.3,26.2,30.14,ESE,120,3.0,12.0,59,0.00,,---,0.00,VWS V14.01,2013-01-19 15:40:00,
2013-01-19 10:45:00,39.6,26.1,30.14,NNE,17,0.0,14.0,58,0.00,,---,0.00,VWS V14.01,2013-01-19 15:45:00,
2013-01-19 10:50:00,39.7,26.1,30.13,SSW,196,6.0,15.0,58,0.00,,---,0.00,VWS V14.01,2013-01-19 15:50:00,
2013-01-19 10:55:00,39.9,25.9,30.12,South,169,3.0,10.0,57,0.00,,---,0.00,VWS V14.01,2013-01-19 15:55:00,
2013-01-19 11:00:00,40.1,26.1,30.12,NW,305,3.0,10.0,57,0.00,,---,0.00,VWS V14.01,2013-01-19 16:00:00,
2013-01-19 11:05:00,40.2,26.2,30.12,SW,235,1.0,12.0,57,0.00,,---,0.00,VWS V14.01,2013-01-19 16:05:00,
2013-01-19 11:10:00,40.4,26.4,30.11,WNW,287,1.0,7.0,57,0.00,,---,0.00,VWS V14.01,2013-01-19 16:10:00,
2013-01-19 11:15:00,40.6,26.1,30.10,SSE,161,5.0,9.0,56,0.00,,---,0.00,VWS V14.01,2013-01-19 16:15:00,
2013-01-19 11:20:00,40.8,25.9,30.10,SE,145,3.0,11.0,55,0.00,,---,0.00,VWS V14.01,2013-01-19 16:20:00,
2013-01-19 11:25:00,40.9,26.0,30.09,WNW,283,4.0,13.0,55,0.00,,---,0.00,VWS V14.01,2013-01-19 16:25:00,
2013-01-19 11:30:00,41.1,25.7,30.09,NNE,30,4.0,15.0,54,0.01,,---,0.01,VWS V14.01,2013-01-19 16:30:00,
2013-01-19 11:35:00,41.3,25.9,30.08,NW,320,4.0,14.0,54,0.01,,---,0.01,VWS V14.01,2013-01-19 16:35:00,
2013-01-19 11:40:00,41.5,26.1,30.08,WSW,238,9.0,13.0,54,0.01,,---,0.01,VWS V14.01,2013-01-19 16:40:00,
2013-01-19 11:45:00,41.8,25.9,30.08,SSW,192,5.0,13.0,53,0.01,,---,0.01,VWS V14.01,2013-01-19 16:45:00,
2013-01-19 11:50:00,42.2,26.3,30.07,East,84,1.0,9.0,53,0.01,,---,0.01,VWS V14.01,2013-01-19 16:50:00,
2013-01-19 11:55:00,42.5,26.1,30.07,SW,236,3.0,12.0,52,0.01,,---,0.01,VWS V14.01,2013-01-19 16:55:00,
2013-01-19 12:00:00,43.1,25.7,30.07,NW,314,6.0,16.0,50,0.01,,---,0.01,VWS V14.01,2013-01-19 17:00:00,
2013-01-19 12:05:00,43.4,25.5,30.06,SSW,199,4.0,18.0,49,0.01,,---,0.01,VWS V14.01,2013-01-19 17:05:00,
2013-01-19 12:10:00,43.8,25.9,30.06,ESE,113,4.0,11.0,49,0.01,,---,0.01,VWS V14.01,2013-01-19 17:10:00,
2013-01-19 12:15:00,44.2,25.8,30.06,ENE,60,2.0,14.0,48,0.01,,---,0.01,VWS V14.01,2013-01-19 17:15:00,
2013-01-19 12:20:00,44.7,25.7,30.05,NE,55,2.0,12.0,47,0.01,,---,0.01,VWS V14.01,2013-01-19 17:20:00,
2013-01-19 12:25:00,45.0,25.5,30.05,WNW,287,6.0,11.0,46,0.01,,---,0.01,VWS V14.01,2013-01-19 17:25:00,
2013-01-19 12:30:00,45.1,25.6,30.05,WNW,298,5.0,13.0,46,0.01,,---,0.01,VWS V14.01,2013-01-19 17:30:00,
2013-01-19 12:35:00,44.7,25.2,30.05,West,264,8.0,20.0,46,0.00,,---,0.01,VWS V14.01,2013-01-19 17:35:00,
2013-01-19 12:40:00,44.7,25.7,30.04,South,185,2.0,8.0,47,0.00,,---,0.01,VWS V14.01,2013-01-19 17:40:00,
2013-01-19 12:45:00,44.8,25.8,30.04,SW,224,6.0,12.0,47,0.00,,---,0.01,VWS V14.01,2013-01-19 17:45:00,
2013-01-19 12:50:00,45.1,25.6,30.03,SSE,159,1.0,9.0,46,0.00,,---,0.01,VWS V14.01,2013-01-19 17:50:00,
2013-01-19 12:55:00,45.6,26.0,30.04,SW,227,2.0,12.0,46,0.01,,---,0.02,VWS V14.01,2013-01-19 17:55:00,
2013-01-19 13:00:00,45.9,26.3,30.03,WSW,245,2.0,13.0,46,0.01,,---,0.02,VWS V14.01,2013-01-19 18:00:00,
2013-01-19 13:05:00,46.0,25.9,30.03,WNW,285,4.0,16.0,45,0.01,,---,0.02,VWS V14.01,2013-01-19 18:05:00,
2013-01-19 13:10:00,46.0,25.9,30.03,SW,220,5.0,13.0,45,0.01,,---,0.02,VWS V14.01,2013-01-19 18:10:00,
2013-01-19 13:15:00,46.2,25.5,30.03,NW,306,2.0,11.0,44,0.01,,---,0.02,VWS V14.01,2013-01-19 18:15:00,
2013-01-19 13:20:00,46.2,25.5,30.02,SSE,152,1.0,10.0,44,0.01,,---,0.02,VWS V14.01,2013-01-19 18:20:00,
2013-01-19 13:25:00,46.3,25.6,30.02,SSW,206,2.0,11.0,44,0.01,,---,0.02,VWS V14.01,2013-01-19 18:25:00,
2013-01-19 13:30:00,46.5,26.3,30.02,SE,142,3.0,11.0,45,0.01,,---,0.02,VWS V14.01,2013-01-19 18:30:00,
2013-01-19 13:35:00,46.6,25.9,30.02,NW,322,4.0,9.0,44,0.01,,---,0.02,VWS V14.01,2013-01-19 18:35:00,
2013-01-19 13:40:00,46.8,26.0,30.02,NNW,340,2.0,7.0,44,0.01,,---,0.02,VWS V14.01,2013-01-19 18:40:00,
2013-01-19 13:45:00,46.9,26.1,30.01,WNW,284,1.0,7.0,44,0.01,,---,0.02,VWS V14.01,2013-01-19 18:45:00,
2013-01-19 13:50:00,47.2,26.4,30.01,SSW,207,1.0,10.0,44,0.01,,---,0.02,VWS V14.01,2013-01-19 18:50:00,
2013-01-19 13:55:00,47.3,26.0,30.01,NW,316,3.0,10.0,43,0.01,,---,0.02,VWS V14.01,2013-01-19 18:55:00,
2013-01-19 14:00:00,47.6,26.2,30.01,West,280,4.0,8.0,43,0.00,,---,0.02,VWS V14.01,2013-01-19 19:00:00,
2013-01-19 14:05:00,47.7,25.8,30.01,NW,306,4.0,12.0,42,0.00,,---,0.02,VWS V14.01,2013-01-19 19:05:00,
2013-01-19 14:10:00,47.8,25.3,30.00,NNE,13,2.0,14.0,41,0.00,,---,0.02,VWS V14.01,2013-01-19 19:10:00,
2013-01-19 14:15:00,47.8,25.3,30.00,West,264,2.0,20.0,41,0.00,,---,0.02,VWS V14.01,2013-01-19 19:15:00,
2013-01-19 14:20:00,47.8,25.3,30.01,NNW,347,1.0,11.0,41,0.00,,---,0.02,VWS V14.01,2013-01-19 19:20:00,
2013-01-19 14:25:00,47.8,24.7,30.01,West,261,11.0,19.0,40,0.00,,---,0.02,VWS V14.01,2013-01-19 19:25:00,
2013-01-19 14:30:00,47.6,25.1,30.01,NW,319,11.0,13.0,41,0.00,,---,0.02,VWS V14.01,2013-01-19 19:30:00,
2013-01-19 14:35:00,47.5,24.4,30.01,South,184,0.0,16.0,40,0.00,,---,0.02,VWS V14.01,2013-01-19 19:35:00,
2013-01-19 14:40:00,47.5,25.0,30.00,NNE,30,6.0,9.0,41,0.00,,---,0.02,VWS V14.01,2013-01-19 19:40:00,
2013-01-19 14:45:00,47.4,24.9,30.00,South,188,4.0,14.0,41,0.00,,---,0.02,VWS V14.01,2013-01-19 19:45:00,
2013-01-19 14:50:00,47.1,25.2,30.00,North,8,1.0,11.0,42,0.00,,---,0.02,VWS V14.01,2013-01-19 19:50:00,
2013-01-19 14:55:00,46.9,25.0,30.00,SE,127,3.0,17.0,42,0.00,,---,0.02,VWS V14.01,2013-01-19 19:55:00,
2013-01-19 15:00:00,46.7,25.4,30.00,WSW,243,3.0,10.0,43,0.00,,---,0.02,VWS V14.01,2013-01-19 20:00:00,
2013-01-19 15:05:00,46.5,25.2,30.00,ESE,122,0.0,5.0,43,0.00,,---,0.02,VWS V14.01,2013-01-19 20:05:00,
2013-01-19 15:10:00,46.2,25.0,30.00,SE,138,3.0,11.0,43,0.00,,---,0.02,VWS V14.01,2013-01-19 20:10:00,
2013-01-19 15:15:00,46.2,25.0,30.00,North,9,1.0,10.0,43,0.00,,---,0.02,VWS V14.01,2013-01-19 20:15:00,
2013-01-19 15:20:00,46.2,25.0,30.00,NNE,24,9.0,13.0,43,0.00,,---,0.02,VWS V14.01,2013-01-19 20:20:00,
2013-01-19 15:25:00,46.1,24.9,30.00,SSW,206,6.0,16.0,43,0.00,,---,0.02,VWS V14.01,2013-01-19 20:25:00,
2013-01-19 15:30:00,46.1,25.4,30.00,WSW,248,3.0,15.0,44,0.00,,---,0.02,VWS V14.01,2013-01-19 20:30:00,
2013-01-19 15:35:00,45.9,25.8,30.00,SSW,197,3.0,11.0,45,0.00,,---,0.02,VWS V14.01,2013-01-19 20:35:00,
2013-01-19 15:40:00,45.8,25.1,29.99,SW,229,4.0,15.0,44,0.00,,---,0.02,VWS V14.01,2013-01-19 20:40:00,
2013-01-19 15:45:00,45.7,25.6,29.99,NE,53,0.0,8.0,45,0.00,,---,0.02,VWS V14.01,2013-01-19 20:45:00,
2013-01-19 15:50:00,45.6,25.5,30.00,SW,236,7.0,13.0,45,0.00,,---,0.02,VWS V14.01,2013-01-19 20:50:00,
2013-01-19 15:55:00,45.5,25.4,30.00,WSW,256,5.0,10.0,45,0.00,,---,0.02,VWS V14.01,2013-01-19 20:55:00,
2013-01-19 16:00:00,45.4,25.3,30.00,NNE,30,3.0,5.0,45,0.00,,---,0.02,VWS V14.01,2013-01-19 21:00:00,
2013-01-19 16:05:00,45.3,25.2,30.00,WNW,282,11.0,16.0,45,0.00,,---,0.02,VWS V14.01,2013-01-19 21:05:00,
2013-01-19 16:10:00,45.2,25.7,30.00,NW,308,0.0,15.0,46,0.00,,---,0.02,VWS V14.01,2013-01-19 21:10:00,
2013-01-19 16:15:00,44.9,25.4,30.00,SSW,204,3.0,16.0,46,0.00,,---,0.02,VWS V14.01,2013-01-19 21:15:00,
2013-01-19 16:20:00,44.8,25.3,30.00,East,97,0.0,10.0,46,0.00,,---,0.02,VWS V14.01,2013-01-19 21:20:00,
2013-01-19 16:25:00,44.7,25.7,30.00,West,268,3.0,13.0,47,0.00,,---,0.02,VWS V14.01,2013-01-19 21:25:00,
2013-01-19 16:30:00,44.5,25.5,30.00,SE,139,0.0,10.0,47,0.00,,---,0.02,VWS V14.01,2013-01-19 21:30:00,
2013-01-19 16:35:00,44.3,25.4,30.01,WSW,253,2.0,6.0,47,0.00,,---,0.02,VWS V14.01,2013-01-19 21:35:00,
2013-01-19 16:40:00,44.1,25.7,30.00,NW,309,1.0,11.0,48,0.00,,---,0.02,VWS V14.01,2013-01-19 21:40:00,
2013-01-19 16:45:00,43.9,25.5,30.01,SSW,210,3.0,5.0,48,0.00,,---,0.02,VWS V14.01,2013-01-19 21:45:00,
2013-01-19 16:50:00,43.7,25.8,30.01,South,181,0.0,13.0,49,0.00,,---,0.02,VWS V14.01,2013-01-19 21:50:00,
2013-01-19 16:55:00,43.6,25.7,30.00,NW,308,0.0,5.0,49,0.00,,---,0.02,VWS V14.01,2013-01-19 21:55:00,
2013-01-19 17:00:00,43.4,25.5,30.01,North,354,2.0,3.0,49,0.00,,---,0.02,VWS V14.01,2013-01-19 22:00:00,
2013-01-19 17:05:00,43.2,25.4,30.00,South,179,1.0,4.0,49,0.00,,---,0.02,VWS V14.01,2013-01-19 22:05:00,
2013-01-19 17:10:00,43.1,25.7,30.00,SSW,206,0.0,6.0,50,0.00,,---,0.02,VWS V14.01,2013-01-19 22:10:00,
2013-01-19 17:15:00,42.8,25.5,30.00,SSW,196,1.0,3.0,50,0.00,,---,0.02,VWS V14.01,2013-01-19 22:15:00,
2013-01-19 17:20:00,42.7,25.9,30.00,WNW,292,0.0,4.0,51,0.00,,---,0.02,VWS V14.01,2013-01-19 22:20:00,
2013-01-19 17:25:00,42.6,25.8,30.00,SW,232,0.0,6.0,51,0.00,,---,0.02,VWS V14.01,2013-01-19 22:25:00,
2013-01-19 17:30:00,42.5,25.7,30.00,SSW,202,1.0,6.0,51,0.00,,---,0.02,VWS V14.01,2013-01-19 22:30:00,
2013-01-19 17:35:00,42.4,25.6,30.01,WSW,255,0.0,4.0,51,0.00,,---,0.02,VWS V14.01,2013-01-19 22:35:00,
2013-01-19 17:40:00,42.3,25.9,30.01,WSW,255,0.0,4.0,52,0.00,,---,0.02,VWS V14.01,2013-01-19 22:40:00,
2013-01-19 17:45:00,42.2,25.9,30.01,WNW,303,0.0,6.0,52,0.00,,---,0.02,VWS V14.01,2013-01-19 22:45:00,
2013-01-19 17:50:00,42.1,26.2,30.01,NW,314,0.0,3.0,53,0.00,,---,0.02,VWS V14.01,2013-01-19 22:50:00,
2013-01-19 17:55:00,42.0,25.7,30.00,SW,215,0.0,1.0,52,0.00,,---,0.02,VWS V14.01,2013-01-19 22:55:00,
2013-01-19 18:00:00,42.0,26.1,30.01,NE,53,1.0,4.0,53,0.00,,---,0.02,VWS V14.01,2013-01-19 23:00:00,
2013-01-19 18:05:00,41.8,26.4,30.00,SSE,148,0.0,4.0,54,0.00,,---,0.02,VWS V14.01,2013-01-19 23:05:00,
2013-01-19 18:10:00,41.6,26.2,30.00,SE,146,0.0,2.0,54,0.00,,---,0.02,VWS V14.01,2013-01-19 23:10:00,
2013-01-19 18:15:00,41.6,26.2,30.00,SW,215,2.0,5.0,54,0.00,,---,0.02,VWS V14.01,2013-01-19 23:15:00,
2013-01-19 18:20:00,41.6,26.2,30.00,NE,45,0.0,5.0,54,0.00,,---,0.02,VWS V14.01,2013-01-19 23:20:00,
2013-01-19 18:25:00,41.6,26.2,30.00,SE,138,3.0,5.0,54,0.00,,---,0.02,VWS V14.01,2013-01-19 23:25:00,
2013-01-19 18:30:00,41.5,26.5,30.00,SE,129,0.0,4.0,55,0.00,,---,0.02,VWS V14.01,2013-01-19 23:30:00,
2013-01-19 18:35:00,41.5,26.1,30.00,SW,220,2.0,5.0,54,0.00,,---,0.02,VWS V14.01,2013-01-19 23:35:00,
2013-01-19 18:40:00,41.4,26.0,30.00,SSE,167,1.0,2.0,54,0.00,,---,0.02,VWS V14.01,2013-01-19 23:40:00,
2013-01-19 18:45:00,41.3,26.4,30.00,SE,144,1.0,4.0,55,0.00,,---,0.02,VWS V14.01,2013-01-19 23:45:00,
2013-01-19 18:50:00,41.3,26.4,30.00,SE,127,0.0,2.0,55,0.00,,---,0.02,VWS V14.01,2013-01-19 23:50:00,
2013-01-19 18:55:00,41.1,26.2,30.01,SW,216,0.0,2.0,55,0.00,,---,0.02,VWS V14.01,2013-01-19 23:55:00,
2013-01-19 19:00:00,41.0,26.5,30.01,SSW,198,0.0,2.0,56,0.00,,---,0.02,VWS V14.01,2013-01-20 00:00:00,
2013-01-19 19:05:00,40.7,26.7,30.00,SSW,206,0.0,2.0,57,0.00,,---,0.02,VWS V14.01,2013-01-20 00:05:00,
2013-01-19 19:10:00,40.4,26.4,30.00,SE,138,1.0,2.0,57,0.00,,---,0.02,VWS V14.01,2013-01-20 00:10:00,
2013-01-19 19:15:00,40.2,26.6,30.01,South,178,0.0,3.0,58,0.00,,---,0.02,VWS V14.01,2013-01-20 00:15:00,
2013-01-19 19:20:00,40.1,26.9,30.00,South,178,0.0,1.0,59,0.00,,---,0.02,VWS V14.01,2013-01-20 00:20:00,
2013-01-19 19:25:00,39.7,27.0,30.00,South,178,2.0,2.0,60,0.00,,---,0.02,VWS V14.01,2013-01-20 00:25:00,
2013-01-19 19:30:00,39.5,26.8,30.00,SE,140,2.0,3.0,60,0.00,,---,0.02,VWS V14.01,2013-01-20 00:30:00,
2013-01-19 19:35:00,39.6,27.3,30.00,South,186,1.0,3.0,61,0.00,,---,0.02,VWS V14.01,2013-01-20 00:35:00,
2013-01-19 19:40:00,39.6,27.3,30.00,SE,137,0.0,4.0,61,0.00,,---,0.02,VWS V14.01,2013-01-20 00:40:00,
2013-01-19 19:45:00,39.6,27.7,30.00,SW,214,0.0,3.0,62,0.00,,---,0.02,VWS V14.01,2013-01-20 00:45:00,
2013-01-19 19:50:00,39.4,27.9,30.00,SW,214,0.0,1.0,63,0.00,,---,0.02,VWS V14.01,2013-01-20 00:50:00,
2013-01-19 19:55:00,39.2,28.1,30.00,West,262,0.0,3.0,64,0.00,,---,0.02,VWS V14.01,2013-01-20 00:55:00,
2013-01-19 20:00:00,39.1,28.3,30.00,ESE,111,0.0,2.0,65,0.00,,---,0.02,VWS V14.01,2013-01-20 01:00:00,
2013-01-19 20:05:00,38.9,28.1,30.00,SE,127,0.0,2.0,65,0.00,,---,0.02,VWS V14.01,2013-01-20 01:05:00,
2013-01-19 20:10:00,38.9,28.5,30.00,NW,314,0.0,4.0,66,0.00,,---,0.02,VWS V14.01,2013-01-20 01:10:00,
2013-01-19 20:15:00,39.1,29.1,30.00,SW,215,0.0,5.0,67,0.00,,---,0.02,VWS V14.01,2013-01-20 01:15:00,
2013-01-19 20:20:00,39.0,29.0,29.99,South,174,0.0,2.0,67,0.00,,---,0.02,VWS V14.01,2013-01-20 01:20:00,
2013-01-19 20:25:00,38.9,28.9,29.99,SSW,208,0.0,1.0,67,0.00,,---,0.02,VWS V14.01,2013-01-20 01:25:00,
2013-01-19 20:30:00,38.6,29.0,29.99,SW,232,0.0,3.0,68,0.00,,---,0.02,VWS V14.01,2013-01-20 01:30:00,
2013-01-19 20:35:00,38.4,29.5,29.99,South,171,0.0,2.0,70,0.00,,---,0.02,VWS V14.01,2013-01-20 01:35:00,
2013-01-19 20:40:00,38.4,29.5,29.99,SSW,202,0.0,4.0,70,0.00,,---,0.02,VWS V14.01,2013-01-20 01:40:00,
2013-01-19 20:45:00,38.3,29.7,29.98,SW,228,0.0,4.0,71,0.00,,---,0.02,VWS V14.01,2013-01-20 01:45:00,
2013-01-19 20:50:00,38.1,29.5,29.98,SW,228,1.0,2.0,71,0.00,,---,0.02,VWS V14.01,2013-01-20 01:50:00,
2013-01-19 20:55:00,37.8,29.3,29.98,SW,228,0.0,1.0,71,0.00,,---,0.02,VWS V14.01,2013-01-20 01:55:00,
2013-01-19 21:00:00,37.3,29.1,29.98,SE,133,0.0,2.0,72,0.00,,---,0.02,VWS V14.01,2013-01-20 02:00:00,
2013-01-19 21:05:00,37.1,29.6,29.98,SE,133,0.0,1.0,74,0.00,,---,0.02,VWS V14.01,2013-01-20 02:05:00,
2013-01-19 21:10:00,36.9,29.7,29.97,SE,133,0.0,1.0,75,0.00,,---,0.02,VWS V14.01,2013-01-20 02:10:00,
2013-01-19 21:15:00,36.6,29.4,29.97,SE,133,0.0,2.0,75,0.00,,---,0.02,VWS V14.01,2013-01-20 02:15:00,
2013-01-19 21:20:00,36.2,29.4,29.97,SE,133,0.0,0.0,76,0.00,,---,0.02,VWS V14.01,2013-01-20 02:20:00,
2013-01-19 21:25:00,36.0,29.5,29.97,SE,128,0.0,2.0,77,0.00,,---,0.02,VWS V14.01,2013-01-20 02:25:00,
2013-01-19 21:30:00,35.9,29.7,29.97,SE,140,0.0,1.0,78,0.00,,---,0.02,VWS V14.01,2013-01-20 02:30:00,
2013-01-19 21:35:00,35.9,29.4,29.97,SE,140,0.0,1.0,77,0.00,,---,0.02,VWS V14.01,2013-01-20 02:35:00,
2013-01-19 21:40:00,35.8,29.6,29.96,SSE,158,0.0,3.0,78,0.00,,---,0.02,VWS V14.01,2013-01-20 02:40:00,
2013-01-19 21:45:00,35.9,30.0,29.96,SSE,158,0.0,2.0,79,0.00,,---,0.02,VWS V14.01,2013-01-20 02:45:00,
2013-01-19 21:50:00,36.3,30.1,29.96,SE,135,0.0,2.0,78,0.00,,---,0.02,VWS V14.01,2013-01-20 02:50:00,
2013-01-19 21:55:00,36.4,30.2,29.95,SE,135,0.0,1.0,78,0.00,,---,0.02,VWS V14.01,2013-01-20 02:55:00,
2013-01-19 22:00:00,36.6,30.4,29.95,SE,136,0.0,2.0,78,0.00,,---,0.02,VWS V14.01,2013-01-20 03:00:00,
2013-01-19 22:05:00,36.8,30.6,29.95,SE,136,0.0,1.0,78,0.00,,---,0.02,VWS V14.01,2013-01-20 03:05:00,
2013-01-19 22:10:00,37.1,30.6,29.95,SW,219,0.0,3.0,77,0.00,,---,0.02,VWS V14.01,2013-01-20 03:10:00,
2013-01-19 22:15:00,37.4,30.5,29.95,South,191,0.0,2.0,76,0.00,,---,0.02,VWS V14.01,2013-01-20 03:15:00,
2013-01-19 22:20:00,37.5,30.6,29.94,SE,138,0.0,2.0,76,0.00,,---,0.02,VWS V14.01,2013-01-20 03:20:00,
2013-01-19 22:25:00,37.4,30.5,29.94,SSE,167,0.0,3.0,76,0.00,,---,0.02,VWS V14.01,2013-01-20 03:25:00,
2013-01-19 22:30:00,37.3,30.8,29.94,SSE,156,0.0,4.0,77,0.00,,---,0.02,VWS V14.01,2013-01-20 03:30:00,
2013-01-19 22:35:00,37.3,30.8,29.93,SSE,156,0.0,2.0,77,0.00,,---,0.02,VWS V14.01,2013-01-20 03:35:00,
2013-01-19 22:40:00,37.3,30.8,29.93,SSE,156,0.0,1.0,77,0.00,,---,0.02,VWS V14.01,2013-01-20 03:40:00,
2013-01-19 22:45:00,37.3,30.8,29.93,SE,138,2.0,2.0,77,0.00,,---,0.02,VWS V14.01,2013-01-20 03:45:00,
2013-01-19 22:50:00,37.3,30.8,29.93,SE,126,0.0,2.0,77,0.00,,---,0.02,VWS V14.01,2013-01-20 03:50:00,
2013-01-19 22:55:00,37.2,31.0,29.92,SE,126,0.0,2.0,78,0.00,,---,0.02,VWS V14.01,2013-01-20 03:55:00,
2013-01-19 23:00:00,37.3,31.1,29.92,ESE,115,1.0,2.0,78,0.00,,---,0.02,VWS V14.01,2013-01-20 04:00:00,
2013-01-19 23:05:00,37.4,31.2,29.92,SE,136,1.0,2.0,78,0.00,,---,0.02,VWS V14.01,2013-01-20 04:05:00,
2013-01-19 23:10:00,37.7,31.1,29.92,South,189,1.0,4.0,77,0.00,,---,0.02,VWS V14.01,2013-01-20 04:10:00,
2013-01-19 23:15:00,37.9,31.4,29.91,SW,231,0.0,5.0,77,0.00,,---,0.02,VWS V14.01,2013-01-20 04:15:00,
2013-01-19 23:20:00,38.0,31.4,29.91,SSE,156,0.0,3.0,77,0.00,,---,0.02,VWS V14.01,2013-01-20 04:20:00,
2013-01-19 23:25:00,38.0,31.4,29.90,SSE,157,0.0,3.0,77,0.00,,---,0.02,VWS V14.01,2013-01-20 04:25:00,
2013-01-19 23:30:00,38.1,31.5,29.90,SSE,164,0.0,3.0,77,0.00,,---,0.02,VWS V14.01,2013-01-20 04:30:00,
2013-01-19 23:35:00,38.3,31.7,29.90,SSE,165,0.0,3.0,77,0.00,,---,0.02,VWS V14.01,2013-01-20 04:35:00,
2013-01-19 23:40:00,38.4,31.8,29.89,SSE,165,1.0,2.0,77,0.00,,---,0.02,VWS V14.01,2013-01-20 04:40:00,
2013-01-19 23:45:00,38.6,31.7,29.89,South,179,0.0,5.0,76,0.00,,---,0.02,VWS V14.01,2013-01-20 04:45:00,
2013-01-19 23:50:00,38.7,31.8,29.89,NNW,332,0.0,3.0,76,0.00,,---,0.02,VWS V14.01,2013-01-20 04:50:00,
2013-01-19 23:55:00,38.8,31.9,29.89,South,190,1.0,2.0,76,0.00,,---,0.02,VWS V14.01,2013-01-20 04:55:00,